sat.trackr.live / text

‹ back to catalog

STARLINK-3661

NORAD 52129 · 2022-029AT

PAYLOAD ACTIVE UNKNOWN

§ Identity

Operator
Country
US
Launch date
2022-03-19
Launch site
AFETR
Launch vehicle
Mass (kg)
RCS (m²)

Purposes: comms

External: N2YO · Heavens-Above · Gunter

§ Orbital elements

Epoch: 2026-09-20T00:36:08.839584Z

Period
95.15 min
Inclination
53.1611°
Eccentricity
0.0001704
Mean motion
15.13427885 rev/d
Perigee alt
524.6 km
Apogee alt
526.9 km
Semi-major
6,903.9 km
B*
6.0055e-5
RAAN
274.6464°
Arg perigee
66.1696°
Mean anomaly
293.9476°
Rev number
25,029

§ Raw data

STARLINK-36611 52129U 22029AT  26263.02510231  .00000784  00000+0  60055-4 0  99952 52129  53.1611 274.6464 0001704  66.1696 293.9476 15.13427885250299

JSON: /api/v1/satellites/52129 · /tle

For live sub-satellite position, see the globe view (requires WebGL).

§ Visibility from observer

Set your observer location to see the next 7 days of passes ≥ 10°. The values pass through the URL so the page stays shareable.

No JS? Fill the form by hand. The geolocation button needs JavaScript.